This demonstration page uses our WeatherBlox Daily Observations layout. Learn more.

38.89511, -77.03637

Hourly Observations for February 29, 2020

Temp ( °F °C ) Dew Point ( °F °C ) Humidity (%) Winds ( mph kmh ) Pressure ( in mb ) Visibility ( mi km ) Precip ( " mm )
12:52 am 00:52 Partly Cloudy 36 2.2 16 -8.9 44 44 NW 9 15 29.95 1014 10 16.0934 0 0
1:52 am 01:52 Mostly Clear 34 1.1 17 -8.3 50 50 NW 10 17 29.94 1014 10 16.0934 0 0
2:52 am 02:52 Mostly Clear 33 0.6 17 -8.3 52 52 NW 12 19 29.93 1014 10 16.0934 0 0
3:52 am 03:52 Mostly Clear 33 0.6 16 -8.9 49 49 NW 8 13 29.93 1014 10 16.0934 0 0
4:52 am 04:52 Mostly Cloudy 32 0 15 -9.4 50 50 NW 5 7 29.94 1014 10 16.0934 0 0
5:52 am 05:52 Cloudy 32 0 16 -8.9 52 52 NW 10 17 29.96 1015 10 16.0934 0 0
6:52 am 06:52 Mostly Cloudy 32 0 14 -10 47 47 WNW 9 15 29.97 1015 10 16.0934 0 0
7:52 am 07:52 Cloudy 32 0 12 -11.1 43 43 WNW 12 19 29.99 1016 10 16.0934 0 0
8:52 am 08:52 Cloudy 33 0.6 12 -11.1 42 42 NW 16 26 30.01 1016 10 16.0934 0 0
9:52 am 09:52 Mostly Cloudy 34 1.1 10 -12.2 37 37 NW 26 43 30.02 1017 10 16.0934 0 0
10:52 am 10:52 Partly Cloudy 35 1.7 10 -12.2 35 35 WNW 22 35 30.02 1017 10 16.0934 0 0
11:52 am 11:52 Mostly Cloudy 37 2.8 11 -11.7 34 34 W 21 33 30.02 1017 10 16.0934 0 0
12:52 pm 12:52 Mostly Cloudy 36 2.2 11 -11.7 35 35 WNW 23 37 30.01 1016 10 16.0934 0 0
1:52 pm 13:52 Partly Cloudy 38 3.3 12 -11.1 34 34 NW 21 33 30.01 1016 10 16.0934 0 0
2:52 pm 14:52 Mostly Cloudy 38 3.3 12 -11.1 34 34 NW 14 22 30.03 1017 10 16.0934 0 0
3:52 pm 15:52 Partly Cloudy 37 2.8 11 -11.7 34 34 NW 21 33 30.04 1017 10 16.0934 0 0
4:52 pm 16:52 Mostly Cloudy 37 2.8 12 -11.1 36 36 NW 13 20 30.06 1018 10 16.0934 0 0
5:52 pm 17:52 Partly Cloudy 36 2.2 12 -11.1 37 37 NNW 14 22 30.07 1018 10 16.0934 0 0
6:52 pm 18:52 Mostly Clear 35 1.7 12 -11.1 38 38 NW 9 15 30.09 1019 10 16.0934 0 0
7:52 pm 19:52 Mostly Clear 34 1.1 12 -11.1 40 40 NW 7 11 30.11 1020 10 16.0934 0 0
8:52 pm 20:52 Mostly Clear 36 2.2 11 -11.7 35 35 WNW 10 17 30.14 1021 10 16.0934 0 0
9:52 pm 21:52 Mostly Clear 35 1.7 11 -11.7 37 37 WNW 16 26 30.15 1021 10 16.0934 0 0
10:52 pm 22:52 Mostly Clear 34 1.1 12 -11.1 40 40 W 14 22 30.17 1022 10 16.0934 0 0
11:52 pm 23:52 Clear 34 1.1 12 -11.1 40 40 WNW 12 19 30.18 1022 10 16.0934 0 0

Powered by AerisWeather